Regional Weather Roundup
Issued by NWS Sterling, VA

Home | Current Version | Previous Version | Text Only | Print | Product List | Glossary On
Versions: 1 2 3 4 5 6 7 8 9 10 11 12 13 14 15 16 17 18 19 20 21 22 23 24 25 26 27
000
ASUS41 KLWX 181710
RWRLWX

REGIONAL WEATHER ROUNDUP
NATIONAL WEATHER SERVICE BALTIMORE MD/WASHINGTON DC
1200 PM EST WED JAN 18 2017

Note: "FAIR" indicates few or no clouds below 12,000 feet
with no significant weather and/or obstructions to visibility.
 TC=TEMPERATURE CELSIUS

 * =Non NWS site. Station does not report precipitation (e.g. rain,
    snow, etc.), thunder, or fog.

DCZ001-MDZ009-015-VAZ040>042-051-053>054-181800-
WASHINGTON METRO

CITY           SKY/WX    TMP DP  RH WIND       PRES   REMARKS
WASHINGTON NAT PTSUNNY   59  43  55 NW18G25   29.94F
DULLES         PTSUNNY   55  39  54 NW21G29   29.94F
ANDREWS AFB    MOSUNNY   56  42  57 NW23G30   29.92F
FT BELVOIR     MOSUNNY   58  40  49 NW21G28   29.93F
QUANTICO       MOSUNNY   59  41  51 N20G39    29.95F
LEESBURG*      CLOUDY    55  45  67 NW20G28   29.96S
MANASSAS*      MOSUNNY  N/A N/A N/A NW12G23   29.96F
GAITHERSBURG*  CLOUDY    52  39  62 NW10G24   29.99R

$$

MDZ006>007-011-014-181800-
BALTIMORE METRO

CITY           SKY/WX    TMP DP  RH WIND       PRES   REMARKS
BWI AIRPORT    LGT RAIN  53  44  71 NW14G21   29.93S
MD SCIENCE CTR   N/A     54  41  61 MISG      29.93F
MARTIN STATE   PTSUNNY   55  50  82 W16       29.94S
ANNAPOLIS      CLOUDY    54  41  61 NW16G23   29.92F
FORT MEADE*    CLOUDY    55  43  62 W14G28    29.96S

$$

MDZ012-015-019>023-181800-
MARYLAND EASTERN SHORE

CITY           SKY/WX    TMP DP  RH WIND       PRES   REMARKS
OCEAN CITY     CLOUDY    51  46  83 N10       29.89F
SALISBURY      CLOUDY    51  45  79 N10G17    29.89F
BAY BRIDGE AP* CLOUDY    50  45  81 N6        29.93S
CAMBRIDGE*     CLOUDY    46  45  93 N6        29.91F
EASTON*        PTSUNNY   50  46  87 N3        29.95F

$$

MDZ017>025-181800-
SOUTHERN MARYLAND

CITY           SKY/WX    TMP DP  RH WIND       PRES   REMARKS
PATUXENT RIVER CLOUDY    46  45  96 CALM      29.92F
ST INIGOES     CLOUDY    50  45  83 CALM      29.92F
LEONARDTOWN*   CLOUDY    54  45  71 NW6       29.93F

$$

MDZ003>005-181800-
NORTH CENTRAL MARYLAND

CITY           SKY/WX    TMP DP  RH WIND       PRES   REMARKS
FREDERICK*     PTSUNNY   52  48  87 NW12      29.99S
HAGERSTOWN APT CLOUDY    51  40  65 NW16      29.95F
WESTMINSTER*   MOSUNNY   48  45  87 NW7       29.93F

$$

MDZ501>502-181800-
WESTERN MARYLAND

CITY           SKY/WX    TMP DP  RH WIND       PRES   REMARKS
OAKLAND*         N/A     34  34 100 W12G20    29.99F FOG     WCI  25
CUMBERLAND*    MOSUNNY   50  37  62 NW8G18    30.04F

$$

VAZ025>031-181800-
SHENANDOAH VALLEY

CITY           SKY/WX    TMP DP  RH WIND       PRES   REMARKS
WINCHESTER*    CLOUDY    52  37  58 W16G26    29.97F
FRONT ROYAL*   MOSUNNY   54  37  54 W13G18    29.96F
LURAY*         PTSUNNY   54  39  58 W14       29.97F
NEW MARKET*    PTSUNNY   54  35  48 W7        29.99F
STAUNTON*      PTSUNNY   54  35  48 NW9G16    30.00F
WAYNESBORO*    PTSUNNY   53  33  47 NW12G21   29.99F

$$

WVZ021-048>050-054>055-181800-
EASTERN WEST VIRGINIA PANHANDLE

CITY           SKY/WX    TMP DP  RH WIND       PRES   REMARKS
MARTINSBURG    CLOUDY    53  39  59 NW14G28   29.96F
PETERSBURG*    CLOUDY    53  37  55 SW7       30.02F

$$

VAZ036>039-050-181800-
CENTRAL FOOTHILLS

CITY           SKY/WX    TMP DP  RH WIND       PRES   REMARKS
CHARLOTTESVILL MOSUNNY   61  36  39 NW9G18    29.97F
CULPEPER*      MOSUNNY   60  40  48 NW14      29.96F
ORANGE*          N/A     59  37  44 SW20G25   29.97F
GORDONSVILLE*  MOSUNNY   59  39  47 NW8G16    29.96F
WARRENTON*     PTSUNNY   59  37  44 NW9       29.95F

$$

VAZ055>057-181800-
NORTH AND CENTRAL PIEDMONT

CITY           SKY/WX    TMP DP  RH WIND       PRES   REMARKS
FREDERICKSBRG* SUNNY     60  42  52 NW13G26   29.94S
STAFFORD*      SUNNY     58  41  53 NW23G29   29.99S

$$

NCZ024-NYZ072-PAZ021-071-VAZ022-071-181800-
OTHER REGIONAL OBSERVATIONS

CITY           SKY/WX    TMP DP  RH WIND       PRES   REMARKS
NEW YORK CITY  CLOUDY    40  38  93 N8        29.92F
PHILADELPHIA   CLOUDY    45  40  82 N8        29.93F
PITTSBURGH     DRIZZLE   39  36  89 W10       30.07S
ROANOKE        MOSUNNY   57  36  45 W22G30    30.05F
RICHMOND       PTSUNNY   56  48  74 N7        29.94F
RALEIGH        MOSUNNY   69  44  40 NW10G18   29.97F

$$

ANZ530>537-181800-
MARINE OBSERVATIONS

STATION/POSITION TIME  TEMP    WIND        PRES
                       AIR SEA DIR/SP/G
                 (UTC) (F)     (DEG/KT/KT) (MB)
THOMAS PT LIGHT  1700   54 39  320/ 22/ 25   N/A
BALT KEY BRIDGE  1642   52     300/ 15/ 18 1013.3F
COVE POINT       1642   40     360/  1/  2 1013.9F
LEWISETTA        1642   47 44  260/  2/  2 1013.3F
SOLOMONS ISLAND  1648           90/  4/  5   N/A
PINEY POINT      1648          210/  3/  4   N/A

$$





USA.gov is the U.S. government's official web portal to all federal, state and local government web resources and services.